1390953634672,111.014
1390953694672,111.289
1390953754672,111.401
1390953814672,111.257
1390953874672,110.862
1390953934672,111.419
1390953994672,110.385
1390954054672,110.964
1390954114672,111.031
1390954174672,111.130
1390954234672,111.410
1390954294672,110.887
1390954354672,111.260
1390954414672,111.074
1390954474672,110.880
1390954534672,111.223
1390954594672,110.730
1390954654672,111.169
1390954714672,110.998
1390954774672,110.726
1390954834672,110.326
1390954894672,110.666
1390954954672,109.876
1390955014672,110.243
1390955074672,110.922
1390955134672,110.769
1390955194672,110.773
1390955254672,110.484
1390955314672,110.555
1390955374672,110.047
1390955434672,110.271
1390955494672,110.108
1390955554672,110.179
1390955614672,109.899
1390955674672,110.300
1390955734672,110.118
1390955794672,110.097
1390955854672,109.551
1390955914672,109.946
1390955974672,109.709
1390956034672,110.165
1390956094672,110.369
1390956154672,109.872
1390956214672,110.470
1390956274672,110.869
1390956334672,110.663
1390956394672,110.789
1390956454672,111.477
1390956514672,111.005
1390956574672,111.210
1390956634672,110.623
1390956694672,111.528
1390956754672,111.474
1390956814672,111.426
1390956874672,111.186
1390956934672,111.006
1390956994672,110.544
1390957054672,111.440
1390957114672,111.371
1390957174672,110.967
1390957234687,110.969
1390957294687,111.161
1390957354687,110.680
1390957414687,110.641
1390957474687,110.774
1390957534687,110.545
1390957594687,110.455
1390957654687,110.229
1390957714687,110.635
1390957774687,110.336
1390957834687,110.965
1390957894687,110.327
1390957954687,111.144
1390958014687,110.524
1390958074687,110.494
1390958134687,110.851
1390958194687,110.616
1390958254687,110.446
1390958314687,110.070
1390958374687,110.222
1390958434687,110.540
1390958494687,110.645
1390958554687,110.898
1390958614687,110.350
1390958674687,110.328
1390958734687,110.003
1390958794687,110.628
1390958854687,110.332
1390958914687,110.936
1390958974687,110.704
1390959034687,110.756
1390959094687,110.796
1390959154687,111.060
1390959214687,110.997
1390959274687,111.480
1390959334687,111.057
1390959394687,110.622
1390959454687,111.365
1390959514687,111.213
1390959574687,111.004
1390959634687,111.606
1390959694687,111.114
1390959754687,110.789
1390959814687,111.232
1390959874687,111.285
1390959934687,111.212
1390959994687,111.295
1390960054687,111.347
1390960114687,111.110
1390960174687,111.588
1390960234687,111.342
1390960294687,110.886
1390960354687,111.205
1390960414687,110.794
1390960474687,111.151
1390960534687,110.598
1390960594687,110.976
1390960654687,110.964
1390960714687,111.149
1390960774687,111.239
1390960834698,111.138
1390960894698,111.221
1390960954698,110.824
1390961014698,110.938
1390961074698,111.273
1390961134698,110.715
1390961194698,110.973
1390961254698,110.449
1390961314698,110.837
1390961374698,110.811
1390961434698,110.998
1390961494698,111.140
1390961554698,110.543
1390961614698,111.181
1390961674698,110.928
1390961734698,110.609
1390961794698,111.092
1390961854698,110.785
1390961914698,110.524
1390961974698,110.840
1390962034698,111.443
1390962094698,111.473
1390962154698,111.224
1390962214698,110.807
1390962274698,110.884
1390962334698,110.823
1390962394698,110.608
1390962454698,111.376
1390962514698,110.277
1390962574698,111.056
1390962634698,110.800
1390962694698,111.005
1390962754698,110.877
1390962814698,110.286
1390962874698,110.874
1390962934698,110.789
1390962994698,110.635
1390963054698,110.914
1390963114698,111.141
1390963174698,110.963
1390963234698,110.677
1390963294698,111.316
1390963354698,110.957
1390963414698,110.208
1390963474698,110.953
1390963534698,110.281
1390963594698,110.362
1390963654698,110.792
1390963714698,110.720
1390963774698,110.895
1390963834698,110.736
1390963894698,110.478
1390963954698,110.670
1390964014698,110.684
1390964074698,110.661
1390964134698,110.856
1390964194698,111.126
1390964254698,110.856
1390964314698,110.733
1390964374698,110.272
1390964434708,110.352
1390964494708,110.577
1390964554708,110.370
1390964614708,110.686
1390964674708,110.370
1390964734708,110.920
1390964794708,110.105
1390964854708,110.612
1390964914708,110.315
1390964974708,110.142
1390965034708,110.328
1390965094708,110.767
1390965154708,110.520
1390965214708,110.212
1390965274708,110.488
1390965334708,110.570
1390965394708,110.075
1390965454708,109.733
1390965514708,109.657
1390965574708,110.068
1390965634708,110.238
1390965694708,110.589
1390965754708,110.262
1390965814708,110.110
1390965874708,109.808
1390965934708,110.127
1390965994708,109.651
1390966054708,110.196
1390966114708,109.927
1390966174708,109.952
1390966234708,110.036
1390966294708,110.206
1390966354708,110.707
1390966414708,109.927
1390966474708,110.711
1390966534708,110.281
1390966594708,110.531
1390966654708,110.034
1390966714708,110.078
1390966774708,110.137
1390966834708,110.061
1390966894708,110.138
1390966954708,110.574
1390967014708,110.029
1390967074708,109.976
1390967134708,110.429
1390967194708,110.504
1390967254708,110.341
1390967314708,110.337
1390967374708,109.928
1390967434708,110.519
1390967494708,110.327
1390967554708,110.321
1390967614708,110.122
1390967674708,109.924
1390967734708,110.246
1390967794708,110.561
1390967854708,110.520
1390967914708,110.079
1390967974708,110.245
1390968034719,110.124
1390968094719,109.611
1390968154719,110.109
1390968214719,110.665
1390968274719,110.505
1390968334719,110.582
1390968394719,109.901
1390968454719,110.728
1390968514719,110.092
1390968574719,110.198
1390968634719,110.441
1390968694719,110.025
1390968754719,110.767
1390968814719,110.566
1390968874719,110.744
1390968934719,111.161
1390968994719,110.996
1390969054719,111.191
1390969114719,110.976
1390969174719,111.240
1390969234719,110.725
1390969294719,110.466
1390969354719,111.082
1390969414719,110.369
1390969474719,110.993
1390969534719,110.436
1390969594719,110.867
1390969654719,110.841
1390969714719,111.030
1390969774719,110.815
1390969834719,111.395
1390969894719,110.510
1390969954719,110.529
1390970014719,110.801
1390970074719,110.880
1390970134719,110.287
1390970194719,110.694
1390970254719,110.606
1390970314719,110.480
1390970374719,110.658
1390970434719,110.783
1390970494719,110.602
1390970554719,110.696
1390970614719,111.178
1390970674719,110.814
1390970734719,111.023
1390970794719,110.193
1390970854719,111.316
1390970914719,110.940
1390970974719,111.093
1390971034719,111.079
1390971094719,110.933
1390971154719,110.916
1390971214719,110.568
1390971274719,110.455
1390971334719,110.282
1390971394719,110.351
1390971454719,110.305
1390971514719,110.654
1390971574719,110.491
1390971634730,110.630
1390971694730,110.328
1390971754730,110.431
1390971814730,109.563
1390971874730,109.912
1390971934730,110.050
1390971994730,109.794
1390972054730,109.715
1390972114730,110.029
1390972174730,109.787
1390972234730,110.249
1390972294730,109.946
1390972834730,109.918
1390972894730,110.276
1390972954730,109.979
1390973014730,110.422
1390973074730,109.943
1390973134730,109.949
1390973194730,110.026
1390973254730,109.932
1390973314730,109.757
1390973374730,110.366
1390973434730,110.151
1390973494730,110.587
1390973554730,110.398
1390973614730,110.363
1390973674730,110.150
1390973734730,110.271
1390973794730,110.644
1390973854730,110.798
1390973914730,110.539
1390973974730,110.616
1390974034730,110.773
1390974094730,110.189
1390974154730,110.800
1390974214730,110.165
1390974274730,110.512
1390974334730,110.681
1390974394730,110.066
1390974454730,110.137
1390974514730,110.903
1390974574730,110.376
1390974634730,110.452
1390974694730,110.157
1390974754730,110.669
1390974814730,110.916
1390974874730,110.421
1390974934730,110.721
1390974994730,110.789
1390975054730,110.473
1390975114730,110.517
1390975174730,110.400
1390975234741,110.744
1390975294741,110.469
1390975354741,110.266
1390975414741,110.472
1390975474741,110.698
1390975534741,110.319
1390975594741,110.335
1390975654741,110.237
1390975714741,110.540
1390975774741,110.243
1390975834741,110.158
1390975894741,109.978
1390975954741,110.622
1390976014741,110.757
1390976074741,110.102
1390976134741,110.288
1390976194741,110.686
1390976254741,110.448
1390976314741,109.941
1390976374741,110.702
1390976434741,110.323
1390976494741,110.111
1390976554741,110.873
1390976614741,110.465
1390976674741,110.780
1390976734741,110.782
1390976794741,110.682
1390976854741,110.060
1390976914741,110.373
1390976974741,111.000
1390977034741,110.405
1390977094741,110.233
1390977154741,110.977
1390977214741,111.140
1390977274741,110.792
1390977334741,110.603
1390977394741,111.306
1390977454741,111.160
1390977514741,111.194
1390977574741,111.026
1390977634741,110.588
1390977694741,111.041
1390977754741,110.316
1390977814741,110.836
1390977874741,110.773
1390977934741,111.011
1390977994741,110.539
1390978054741,110.650
1390978114741,111.321
1390978174741,111.256
1390978234741,110.717
1390978294741,110.476
1390978354741,111.089
1390978414741,110.549
1390978474741,110.710
1390978534741,111.202
1390978594741,110.684
1390978654741,110.733
1390978714741,111.010
1390978774741,110.439
1390978834753,110.901
1390978894753,110.808
1390978954752,110.322
1390979014752,110.189
1390979074752,110.897
1390979134752,110.622
1390979194752,111.089
1390979254752,111.082
1390979314752,111.046
1390979374752,110.572
1390979434752,110.823
1390979494753,111.215
1390979554753,110.985
1390979614753,110.606
1390979674752,110.422
1390979734752,110.481
1390979794753,110.792
1390979854753,110.715
1390979914753,110.886
1390979974753,110.552
1390980034753,111.129
1390980094753,110.886
1390980154753,111.176
1390980214753,110.645
1390980274753,111.164
1390980334752,110.960
1390980394752,110.997
1390980454752,110.588
1390980514752,111.090
1390980574752,111.100
1390980634752,111.107
1390980694752,110.864
1390980754752,111.257
1390980814753,110.937
1390980874753,110.810
1390980934753,111.129
1390980994752,110.897
1390981054752,110.953
1390981114752,111.574
1390981174753,110.986
1390981234753,110.567
1390981294753,111.064
1390981354753,111.143
1390981414753,110.851
1390981474753,110.685
1390981534753,110.683
1390981594753,111.027
1390981654752,110.483
1390981714752,110.957
1390981774752,110.559
1390981834752,110.857
1390981894752,110.612
1390981954752,110.750
1390982014752,110.492
1390982074752,110.618
1390982134752,110.020
1390982194753,110.916
1390982254753,110.526
1390982314753,110.373
1390982374752,110.686
1390982434764,110.624
1390982494764,110.654
1390982554764,110.298
1390982614764,110.258
1390982674764,110.744
1390982734764,110.004
1390982794764,110.336
1390982854764,111.187
1390982914764,110.364
1390982974764,110.477
1390983034764,110.720
1390983094764,110.605
1390983154764,110.288
1390983214764,110.250
1390983274764,110.168
1390983334764,110.317
1390983394764,110.227
1390983454764,110.770
1390983514764,109.804
1390983574764,110.406
1390983634764,109.977
1390983694764,110.371
1390983754764,110.707
1390983814764,110.275
1390983874764,110.794
1390983934764,110.458
1390983994764,110.873
1390984054764,110.479
1390984114764,110.341
1390984174764,110.317
1390984234764,109.904
1390984294764,110.467
1390984354764,110.293
1390984414764,110.471
1390984474764,110.167
1390984534764,110.716
1390984594764,110.294
1390984654764,110.872
1390984714764,109.868
1390984774764,110.215
1390984834764,110.195
1390984894764,110.240
1390984954764,110.117
1390985014764,109.856
1390985074764,109.969
1390985134764,110.059
1390985194764,110.267
1390985254764,109.781
1390985314764,109.855
1390985374764,110.389
1390985434764,110.240
1390985494764,109.971
1390985554764,111.024
1390985614764,110.144
1390985674764,110.298
1390985734764,110.082
1390985794764,110.157
1390985854764,110.223
1390985914764,110.171
1390985974764,110.174
1390986034776,110.276
1390986094776,110.191
1390986154776,109.883
1390986214776,109.733
1390986274776,109.844
1390986334776,109.673
1390986394776,110.017
1390986454776,110.134
1390986514776,109.801
1390986574776,109.338
1390986634776,109.634
1390986694776,109.991
1390986754776,110.065
1390986814776,109.762
1390986874776,109.497
1390986934776,109.583
1390986994776,109.823
1390987054776,109.726
1390987114776,109.581
1390987174776,109.896
1390987234776,109.920
1390987294776,109.687
1390987354776,109.474
1390987414776,110.156
1390987474776,109.698
1390987534776,109.425
1390987594776,109.750
1390987654776,109.971
1390987714776,109.361
1390987774776,109.574
1390987834776,109.545
1390987894776,110.067
1390987954776,109.766
1390988014776,110.025
1390988074776,110.142
1390988134776,109.862
1390988194776,109.836
1390988254776,109.741
1390988314776,110.171
1390988374776,109.695
1390988434776,110.029
1390988494776,109.688
1390988554776,110.069
1390988614776,109.994
1390988674776,110.054
1390988734776,110.048
1390988794776,110.176
1390988854776,110.193
1390988914776,109.863
1390988974776,109.698
1390989034776,110.141
1390989094776,110.050
1390989154776,110.246
1390989214776,109.759
1390989274776,110.320
1390989334776,110.397
1390989394776,110.104
1390989454776,110.107
1390989514776,110.027
1390989574776,110.351
1390989634787,109.980
1390989694787,110.572
1390989754787,110.092
1390989814787,110.434
1390989874787,110.090
1390989934787,110.221
1390989994787,109.965
1390990054787,110.581
1390990114787,110.699
1390990174787,110.411
1390990234787,110.203
1390990294787,109.884
1390990354787,110.469
1390990414787,110.661
1390990474787,110.235
1390990534787,109.735
1390990594787,110.475
1390990654787,110.339
1390990714787,110.174
1390990774787,110.288
1390990834787,110.456
1390990894787,110.852
1390990954787,109.962
1390991014787,110.503
1390991074787,109.934
1390991134787,110.116
1390991194787,110.340
1390991254787,110.271
1390991314787,110.219
1390991374787,110.007
1390991434787,110.257
1390991494787,110.136
1390991554787,110.375
1390991614787,110.113
1390991674787,110.568
1390991734787,110.447
1390991794787,110.201
1390991854787,110.280
1390991914787,110.135
1390991974787,109.927
1390992034787,110.183
1390992094787,110.237
1390992154787,109.437
1390992214787,110.353
1390992274787,109.664
1390992334787,110.228
1390992394787,109.889
1390992454787,110.366
1390992514787,110.296
1390992574787,110.282
1390992634787,109.787
1390992694787,109.910
1390992754787,109.647
1390992814787,109.811
1390992874787,110.178
1390992934787,110.121
1390992994787,109.962
1390993054787,109.425
1390993114787,109.431
1390993174787,109.763
1390993234799,109.830
1390993294799,109.600
1390993354799,109.809
1390993414799,109.636
1390993474799,109.442
1390993534799,110.231
1390993594799,109.761
1390993654799,109.370
1390993714799,109.166
1390993774799,109.376
1390993834799,109.482
1390993894799,109.431
1390993954799,109.344
1390994014799,109.728
1390994074799,109.748
1390994134799,109.583
1390994194799,109.431
1390994254799,109.408
1390994314799,109.380
1390994374799,109.440
1390994434799,109.294
1390994494799,109.517
1390994554799,109.433
1390994614799,109.607
1390994674799,109.463
1390994734799,109.536
1390994794799,109.613
1390994854799,109.803
1390994914799,109.173
1390994974799,109.121
1390995034799,109.115
1390995094799,109.556
1390995154799,109.497
1390995214799,109.292
1390995274799,109.664
1390995334799,109.528
1390995394799,109.253
1390995454799,109.316
1390995514799,109.509
1390995574799,109.007
1390995634799,109.606
1390995694799,109.487
1390995754799,109.208
1390995814799,109.522
1390995874799,109.544
1390995934799,109.250
1390995994799,109.560
1390996054799,109.004
1390996114799,109.449
1390996174799,109.760
1390996234799,109.856
1390996294799,109.379
1390996354799,109.504
1390996414799,109.419
1390996474799,109.722
1390996534799,109.164
1390996594799,109.555
1390996654799,109.344
1390996714799,109.391
1390996774799,109.440
1390996834810,109.669
1390996894810,110.078
1390996954810,109.869
1390997014810,109.758
1390997074810,109.426
1390997134810,109.417
1390997194810,110.187
1390997254810,109.460
1390997314810,110.096
1390997374810,109.542
1390997434811,109.557
1390997494810,109.690
1390997554810,109.742
1390997614810,109.775
1390997674810,109.914
1390997734811,109.869
1390997794811,109.595
1390997854811,110.143
1390997914811,110.066
1390997974811,109.450
1390998034811,109.940
1390998094811,109.852
1390998154810,109.781
1390998214810,110.219
1390998274810,110.274
1390998334810,110.442
1390998394810,109.818
1390998454810,110.365
1390998514810,110.050
1390998574810,110.319
1390998634810,110.088
1390998694810,109.858
1390998754811,110.283
1390998814810,110.072
1390998874810,109.566
1390998934810,110.194
1390998994810,110.099
1390999054810,110.338
1390999114811,110.222
1390999174811,110.152
1390999234811,110.064
1390999294811,110.438
1390999354811,110.075
1390999414811,110.310
1390999474810,110.298
1390999534810,110.172
1390999594810,109.890
1390999654810,110.212
1390999714810,110.271
1390999774810,110.240
1390999834810,109.987
1390999894810,110.403
1390999954810,110.212
1391000014810,110.659
1391000074810,110.481
1391000134811,110.852
1391000194810,110.314
1391000254810,110.206
1391000314810,110.605
1391000374810,110.377
1391000434841,110.412
1391000494841,110.222
1391000554841,110.779
1391000614841,110.633
1391000674841,110.344
1391000734841,110.825
1391000794841,110.318
1391000854841,111.108
1391000914841,110.551
1391000974841,110.474
1391001034841,110.925
1391001094840,110.816
1391001154840,110.455
1391001214840,111.128
1391001274841,110.224
1391001334841,110.751
1391001394841,110.466
1391001454841,110.681
1391001514841,110.814
1391001574841,110.814
1391001634841,110.704
1391001694841,110.514
1391001754841,110.849
1391001814841,110.485
1391001874841,110.412
1391001934841,110.881
1391001994841,110.369
1391002054841,110.419
1391002114841,110.887
1391002174841,110.723
1391002234841,110.414
1391002294841,110.468
1391002354841,110.464
1391002414840,110.382
1391002474840,110.876
1391002534840,110.868
1391002594841,111.266
1391002654841,110.789
1391002714841,110.451
1391002774841,110.618
1391002834841,110.428
1391002894841,110.423
1391002954841,111.158
1391003014841,110.527
1391003074841,111.110
1391003134841,110.621
1391003194841,110.656
1391003254841,110.693
1391003314841,110.625
1391003374841,110.479
1391003434841,110.177
1391003494841,111.036
1391003554841,110.532
1391003614841,110.704
1391003674841,110.752
1391003734841,110.734
1391003794840,110.152
1391003854840,110.371
1391003914840,110.550
1391003974841,110.384
1391004034854,110.751
1391004094854,110.845
1391004154854,110.626
1391004214854,110.691
1391004274854,110.430
1391004334854,110.100
1391004394854,110.686
1391004454854,110.708
1391004514854,110.230
1391004574854,110.413
1391004634854,110.479
1391004694854,110.354
1391004754854,110.571
1391004814854,110.549
1391004874854,110.326
1391004934854,110.005
1391004994854,110.359
1391005054854,110.439
1391005114854,111.126
1391005174854,110.267
1391005234854,110.758
1391005294854,110.108
1391005354854,110.266
1391005414854,109.954
1391005474854,110.051
1391005534854,109.628
1391005594854,110.101
1391005654854,109.903
1391005714854,109.905
1391005774854,109.778
1391005834854,110.091
1391005894854,109.870
1391005954854,109.808
1391006014854,109.953
1391006074854,109.866
1391006134854,109.822
1391006194854,109.887
1391006254854,110.142
1391006314854,109.729
1391006374854,109.568
1391006434854,109.913
1391006494854,109.662
1391006554854,109.904
1391006614854,109.293
1391006674854,109.523
1391006734854,109.286
1391006794854,108.886
1391006854854,109.863
1391006914854,109.222
1391006974854,110.109
1391007034854,109.867
1391007094854,109.383
1391007154854,109.507
1391007214854,109.212
1391007274854,109.411
1391007334854,109.836
1391007394854,109.061
1391007454854,108.996
1391007514854,109.188
1391007574854,109.375
1391008114867,109.104
1391008174867,109.224
1391008234867,109.723
1391008294867,109.542
1391008354867,108.932
1391008414867,109.875
1391008474867,109.116
1391008534867,109.418
1391008834867,109.626
1391008894867,109.206
1391008954867,109.620
1391009014867,109.602
1391009074867,109.791
1391009134867,109.878
1391009194867,109.522
1391009254867,109.876
1391009314867,109.274
1391009374867,109.088
1391009434867,109.280
1391009494867,109.457
1391009554867,109.808
1391009614867,109.612
1391009674867,109.838
1391009734867,109.878
1391009794867,109.922
1391009854867,109.610
1391009914867,109.670
1391009974867,109.196
1391010034867,109.607
1391010094867,109.725
1391010154867,110.157
1391010214867,109.680
1391010274867,109.424
1391010334867,109.420
1391010394867,109.730
1391010454867,109.251
1391010514867,109.263
1391010574867,109.274
1391010634867,109.806
1391010694867,109.358
1391010754867,110.070
1391010814867,109.722
1391010874867,109.405
1391010934867,109.240
1391010994867,109.812
1391011054867,109.371
1391011114867,109.742
1391011174867,109.750
1391011234879,109.368
1391011294879,109.782
1391011354879,109.776
1391011414879,109.826
1391011474879,109.644
1391011534879,109.494
1391011594879,109.875
1391011834879,109.950
1391011894879,109.962
1391011954879,109.080
1391012194879,110.167
1391012254879,109.573
1391012314879,109.759
1391012374879,109.469
1391012434879,110.271
1391012494879,109.634
1391012554879,109.843
1391012614879,109.564
1391012674879,109.274
1391012734879,109.754
1391012794879,109.749
1391012854879,109.774
1391012914879,109.306
1391012974879,109.575
1391013034879,109.892
1391013094879,109.841
1391013154879,109.772
1391013214879,109.130
1391013274879,109.569
1391013334879,109.501
1391013394879,109.082
1391013454879,110.359
1391013514879,109.768
1391013574879,109.363
1391013634879,109.997
1391013694879,109.510
1391013754879,109.252
1391013814879,109.385
1391013874879,109.780
1391013934879,109.602
1391013994879,109.061
1391014054879,109.457
1391014114879,109.535
1391014174879,109.534
1391014234879,109.907
1391014294879,109.555
1391014354879,109.612
1391014414879,109.808
1391014474879,109.556
1391014534879,110.195
1391014594879,109.588
1391014654879,109.788
1391014714879,109.610
1391014774879,110.153
1391014834892,109.434
1391014894892,109.965
1391014954892,109.837
1391015014892,109.919
1391015074892,109.409
1391015134892,110.005
1391015194892,109.670
1391015254892,109.815
1391015314892,109.839
1391015374892,110.226
1391015434892,109.983
1391015494892,109.952
1391015554892,110.196
1391015614892,110.095
1391015674892,109.801
1391015734892,109.909
1391015794892,109.707
1391015854892,110.050
1391015914892,109.605
1391015974892,110.155
1391016034892,110.147
1391016094892,109.897
1391016154892,109.659
1391016214892,109.980
1391016274892,110.008
1391016334892,109.747
1391016394892,109.662
1391016454892,110.258
1391016514892,109.475
1391016574892,109.429
1391016634892,109.597
1391016694892,110.020
1391016754892,109.918
1391016814892,109.777
1391016874892,109.606
1391016934892,109.711
1391016994892,109.546
1391017054892,109.729
1391017114892,110.103
1391017174892,110.066
1391017234892,110.020
1391017294892,110.152
1391017354892,109.508
1391017414892,109.783
1391017474892,109.809
1391017534892,109.688
1391017594892,109.347
1391017654892,109.751
1391017714892,109.883
1391017774892,109.907
1391017834892,109.616
1391017894892,109.588
1391017954892,109.774
1391018014892,109.501
1391018074892,109.771
1391018134892,109.678
1391018194892,109.794
1391018254892,110.109
1391018314892,110.303
1391018374892,109.851
1391018434905,109.591
1391018494905,109.637
1391018554905,109.848
1391018614905,109.787
1391018674905,109.746
1391018734905,109.473
1391018794905,110.100
1391018854905,110.092
1391018914905,109.342
1391018974905,109.575
1391019034905,109.039
1391019094905,109.818
1391019154905,109.888
1391019214905,109.830
1391019274905,109.692
1391019334905,109.307
1391019394905,109.231
1391019454905,109.206
1391019514905,109.545
1391019574905,109.552
1391019634905,109.774
1391019694905,109.657
1391019754905,109.195
1391019814905,109.551
1391019874905,109.799
1391019934905,109.970
1391019994905,108.942
1391020054905,109.605
1391020114905,109.469
1391020174905,109.241
1391020234905,109.609
1391020294905,109.605
1391020354905,109.887
1391020414905,109.786
1391020474905,109.657
1391020534905,109.076